TimeCET,TemperatureF,Dew PointF,Humidity,Sea Level PressureIn,VisibilityMPH,Wind Direction,Wind SpeedMPH,Gust SpeedMPH,PrecipitationIn,Events,Conditions,WindDirDegrees,DateUTC
12:00 AM,28.4,26.6,93,30.06,6.2,Calm,Calm,-,N/A,,Unknown,0,2012-10-28 23:00:00
12:30 AM,26.6,24.8,93,30.06,6.2,Calm,Calm,-,N/A,,Unknown,0,2012-10-28 23:30:00
1:00 AM,26.6,26.6,100,30.06,6.2,Calm,Calm,-,N/A,,Unknown,0,2012-10-29 00:00:00
1:30 AM,26.6,24.8,93,30.06,6.2,North,1.2,-,N/A,,Unknown,360,2012-10-29 00:30:00
2:00 AM,26.6,24.8,93,30.06,6.2,North,1.2,-,N/A,,Unknown,360,2012-10-29 01:00:00
2:30 AM,26.6,24.8,93,30.06,6.2,Calm,Calm,-,N/A,,Unknown,0,2012-10-29 01:30:00
3:00 AM,24.8,24.8,100,30.06,6.2,Calm,Calm,-,N/A,,Unknown,0,2012-10-29 02:00:00
3:30 AM,24.8,24.8,100,30.06,6.2,North,1.2,-,N/A,,Unknown,360,2012-10-29 02:30:00
4:00 AM,24.8,23.0,93,30.06,6.2,North,2.3,-,N/A,,Unknown,360,2012-10-29 03:00:00
4:30 AM,24.8,23.0,93,30.04,6.2,Calm,Calm,-,N/A,,Unknown,0,2012-10-29 03:30:00
5:00 AM,24.8,23.0,93,30.06,6.2,North,2.3,-,N/A,,Unknown,10,2012-10-29 04:00:00
5:30 AM,23.0,23.0,100,30.06,6.2,Calm,Calm,-,N/A,,Unknown,0,2012-10-29 04:30:00
6:00 AM,23.0,23.0,100,30.06,6.2,Calm,Calm,-,N/A,,Unknown,0,2012-10-29 05:00:00
6:30 AM,23.0,23.0,100,30.06,6.2,North,1.2,-,N/A,,Unknown,10,2012-10-29 05:30:00
7:00 AM,23.0,23.0,100,30.06,6.2,North,2.3,-,N/A,,Unknown,360,2012-10-29 06:00:00
7:30 AM,23.0,23.0,100,30.06,6.2,North,2.3,-,N/A,,Unknown,360,2012-10-29 06:30:00
8:00 AM,24.8,23.0,93,30.06,6.2,North,2.3,-,N/A,,Unknown,10,2012-10-29 07:00:00
8:30 AM,26.6,24.8,93,30.06,6.2,North,3.5,-,N/A,,Unknown,360,2012-10-29 07:30:00
9:00 AM,28.4,26.6,93,30.06,6.2,Calm,Calm,-,N/A,,Unknown,0,2012-10-29 08:00:00
9:30 AM,32.0,28.4,87,30.06,6.2,Variable,2.3,-,N/A,,Unknown,0,2012-10-29 08:30:00
10:00 AM,33.8,28.4,81,30.06,6.2,North,2.3,-,N/A,,Overcast,360,2012-10-29 09:00:00
10:30 AM,35.6,30.2,81,30.06,6.2,North,4.6,-,N/A,,Overcast,360,2012-10-29 09:30:00
11:00 AM,37.4,30.2,75,30.06,6.2,Variable,2.3,-,N/A,,Overcast,0,2012-10-29 10:00:00
11:30 AM,41.0,28.4,61,30.06,6.2,Variable,2.3,-,N/A,,Overcast,0,2012-10-29 10:30:00
12:00 PM,41.0,28.4,61,30.04,6.2,Calm,Calm,-,N/A,,Overcast,0,2012-10-29 11:00:00
12:30 PM,42.8,28.4,57,30.04,6.2,North,2.3,-,N/A,,Overcast,360,2012-10-29 11:30:00
1:00 PM,42.8,26.6,53,30.04,6.2,North,2.3,-,N/A,,Mostly Cloudy,360,2012-10-29 12:00:00
1:30 PM,42.8,26.6,53,30.01,6.2,North,2.3,-,N/A,,Overcast,360,2012-10-29 12:30:00
2:00 PM,42.8,26.6,53,30.01,6.2,North,2.3,-,N/A,,Overcast,360,2012-10-29 13:00:00
2:30 PM,44.6,24.8,46,30.01,6.2,North,2.3,-,N/A,,Overcast,360,2012-10-29 13:30:00
3:00 PM,46.4,24.8,43,29.98,6.2,North,2.3,-,N/A,,Overcast,360,2012-10-29 14:00:00
3:30 PM,46.4,26.6,46,29.98,6.2,North,2.3,-,N/A,,Partly Cloudy,360,2012-10-29 14:30:00
4:00 PM,46.4,28.4,50,29.98,6.2,North,1.2,-,N/A,,Unknown,360,2012-10-29 15:00:00
4:30 PM,44.6,28.4,53,29.98,6.2,North,1.2,-,N/A,,Unknown,360,2012-10-29 15:30:00
5:00 PM,42.8,30.2,61,29.95,6.2,North,2.3,-,N/A,,Unknown,360,2012-10-29 16:00:00
5:30 PM,42.8,30.2,61,29.95,6.2,North,2.3,-,N/A,,Unknown,360,2012-10-29 16:30:00
6:00 PM,39.2,32.0,75,29.95,6.2,Calm,Calm,-,N/A,,Unknown,0,2012-10-29 17:00:00
6:30 PM,37.4,32.0,81,29.98,6.2,Calm,Calm,-,N/A,,Unknown,0,2012-10-29 17:30:00
7:00 PM,37.4,32.0,81,29.98,6.2,Calm,Calm,-,N/A,,Unknown,0,2012-10-29 18:00:00
7:30 PM,35.6,32.0,87,29.95,6.2,Variable,2.3,-,N/A,,Unknown,0,2012-10-29 18:30:00
8:00 PM,33.8,32.0,93,29.95,6.2,Variable,1.2,-,N/A,,Unknown,0,2012-10-29 19:00:00
8:30 PM,33.8,30.2,87,29.95,6.2,Calm,Calm,-,N/A,,Unknown,0,2012-10-29 19:30:00
9:00 PM,32.0,30.2,93,29.95,6.2,Calm,Calm,-,N/A,,Unknown,0,2012-10-29 20:00:00
9:30 PM,32.0,30.2,93,29.95,6.2,Variable,1.2,-,N/A,,Unknown,0,2012-10-29 20:30:00
10:00 PM,32.0,30.2,93,29.95,6.2,Calm,Calm,-,N/A,,Unknown,0,2012-10-29 21:00:00
10:30 PM,32.0,30.2,93,29.95,6.2,Calm,Calm,-,N/A,,Unknown,0,2012-10-29 21:30:00
11:00 PM,32.0,30.2,93,29.95,6.2,Variable,2.3,-,N/A,,Unknown,0,2012-10-29 22:00:00
11:30 PM,30.2,30.2,100,29.92,5.6,Calm,Calm,-,N/A,,Unknown,0,2012-10-29 22:30:00